Regional Weather Roundup
Issued by NWS

Home | Current Version | Previous Version | Graphics & Text | Print | Product List | Glossary On
Versions: 1 2 3 4 5 6 7 8 9 10 11 12 13 14 15 16 17 18 19 20 21 22 23 24 25 26 27 28 29 30 31 32 33 34 35 36 37 38 39 40 41 42 43 44 45 46 47 48 49 50
000
ASUS45 KPSR 290710
RWRAZ

ARIZONA REGIONAL HOURLY WEATHER ROUNDUP
NATIONAL WEATHER SERVICE PHOENIX AZ
1200 AM MST TUE JUL 29 2014

NOTE: FAIR INDICATES FEW OR NO CLOUDS BELOW 12,000 FEET WITH NO
SIGNIFICANT WEATHER AND/OR OBSTRUCTIONS TO VISIBILITY.

AZZ001>003-036-290800-
NORTHWEST ARIZONA

CITY           SKY/WX    TMP DP  RH WIND       PRES   REMARKS
BULLHEAD CITY  PTCLDY    90  61  37 N8        29.93F
KINGMAN        PTCLDY    77  58  51 VRB7      30.14R
$$

AZZ004>008-015-016-018-290800-
NORTH CENTRAL ARIZONA

CITY           SKY/WX    TMP DP  RH WIND       PRES   REMARKS
GRAND CANYON   MOCLDY    58  53  84 CALM      30.39F
WILLIAMS       PTCLDY    59  55  88 CALM      30.45F
PRESCOTT       CLEAR     67  56  67 S9        30.27F
FLAGSTAFF      CLOUDY    59  53  80 CALM      30.42F
PAYSON         PTCLDY    68  54  60 NE3       30.30S
PAGE           MOCLDY    79  56  45 CALM      30.20S
$$

AZZ009>014-017-290800-
NORTHEAST ARIZONA

CITY           SKY/WX    TMP DP  RH WIND       PRES   REMARKS
WINSLOW        MOCLDY    75  54  47 S3        30.27F
SAINT JOHNS    CLOUDY    70  58  65 SW6       30.32F
WINDOW ROCK    CLOUDY    63  56  78 CALM      30.40F
SHOW LOW       CLOUDY    63  57  82 E5        30.39F
$$

AZZ023-290800-
GREATER PHOENIX AREA

CITY           SKY/WX    TMP DP  RH WIND       PRES   REMARKS
PHOENIX        PTCLDY    97  57  26 W5        29.93S
BUCKEYE          N/A     90  55  31 CALM      29.94S
LUKE AFB       NOT AVBL
DEER VALLEY    CLEAR     91  59  33 NW5       29.96S
SCOTTSDALE     CLEAR     94  60  32 W3        29.97F
MESA-GATEWAY     N/A    N/A N/A N/A MISG        N/A
$$

AZZ027-028-290800-
SOUTHWEST MARICOPA COUNTY AND PINAL COUNTY

CITY           SKY/WX    TMP DP  RH WIND       PRES   REMARKS
CASA GRANDE    CLEAR     90  59  35 CALM      29.98S
$$

AZZ503-504-507>509-290800-
SOUTHEAST ARIZONA

CITY           SKY/WX    TMP DP  RH WIND       PRES   REMARKS
TUCSON         CLEAR     83  65  54 S7        30.09F
DAVIS-MONTHAN  CLEAR     81  64  57 SE8       30.08S
NOGALES        CLEAR     73  62  68 CALM      30.19S
SIERRA VISTA   PTCLDY    73  59  60 SW6       30.25F
DOUGLAS        CLEAR     75  63  66 N8        30.20F
SAFFORD        CLEAR     79  68  69 CALM      30.11S
$$

AZZ020-021-025-026-031-290800-
SOUTHWEST ARIZONA

CITY           SKY/WX    TMP DP  RH WIND       PRES   REMARKS
YUMA           CLEAR     92  65  40 S5        29.89S
$$

CAZ031-033-041-043-047-048-061-290800-
SOUTHERN CALIFORNIA

CITY           SKY/WX    TMP DP  RH WIND       PRES   REMARKS
DOWNTOWN L.A.  CLEAR     71  62  73 E3        30.01F
L.A. AIRPORT   PTCLDY    69  61  75 CALM      30.02S
SAN DIEGO      MOCLDY    73  67  81 CALM      30.05S
BURBANK        CLEAR     77  52  41 SE6       30.03S
ONTARIO        PTCLDY    76  38  25 CALM      30.05S
RIVERSIDE      CLEAR     77  32  19 N5        30.04F
PALM SPRINGS   CLEAR     95  50  21 NW6       29.92F
EL CENTRO NAS  CLEAR     93  54  26 SW13      29.87S
IMPERIAL       CLEAR     93  54  26 SW13      29.86S
BLYTHE           N/A    N/A N/A N/A MISG      29.88S
NEEDLES        CLEAR     85  71  63 S5        29.94S
$$

NVZ020-UTZ003-290800-
SOUTHERN NEVADA-UTAH

CITY           SKY/WX    TMP DP  RH WIND       PRES   REMARKS
LAS VEGAS      MOCLDY    83  63  50 S9        30.00F
SALT LAKE CITY CLOUDY    68  62  81 N6        30.22F
$$

NMZ009-TXZ055-290800-
NEW MEXICO-WEST TEXAS

CITY           SKY/WX    TMP DP  RH WIND       PRES   REMARKS
ALBUQUERQUE    LGT RAIN  71  61  70 NE12      30.33R
EL PASO        MOCLDY    75  63  66 N15       30.16F
$$


........................KEY........................
SKY/WX - SKY CONDITION/WEATHER
TMP    - TEMPERATURE IN FAHRENHEIT
DP     - DEW POINT IN FAHRENHEIT
RH     - RELATIVE HUMIDITY IN PERCENT
WIND   - DIRECTION AND SPEED IN MILES PER HOUR (MPH)
VRB    - VARIABLE WIND DIRECTION
PRES   - MEAN SEA LEVEL PRESSURE IN INCHES OF MERCURY
         F - FALLING PRESSURE   R - RISING PRESSURE
         S - STEADY PRESSURE
VSB    - VISIBILITY IN MILES
HX     - HEAT INDEX IN FAHRENHEIT
WCI    - WIND CHILL INDEX IN FAHRENHEIT
TC     - TEMPERATURE IN CELSIUS WHICH IS ALSO KNOWN AS
         TEMPERATURE IN CENTIGRADE
AFB    - AIR FORCE BASE
         LUKE AFB IS LUKE AIR FORCE BASE
         DAVIS-MONTHAN IS DAVIS-MONTHAN AIR FORCE BASE
NAS    - NAVAL AIR STATION
         EL CENTRO NAS IS EL CENTRO NAVAL AIR STATION
N/A    - NOT AVAILABLE



USA.gov is the U.S. government's official web portal to all federal, state and local government web resources and services.